This demonstration page uses our WeatherBlox Daily Observations layout. Learn more.

Left ArrowRight Arrow

39.12711, -84.51439

Hourly Observations for June 14, 2016

Temp ( °F °C ) Dew Point ( °F °C ) Humidity (%) Winds ( mph kmh ) Pressure ( in mb ) Visibility ( mi km ) Precip ( " mm )
12:53 am 00:53 Clear 63 17.2 60 15.6 90 90 NE 3 6 29.94 1014 10 16 N/A
1:53 am 01:53 Clear 62 16.7 60 15.6 93 93 N N/A 29.93 1014 10 16 N/A
2:53 am 02:53 Clear 61 16.1 60 15.6 97 97 NE 3 6 29.92 1013 10 16 N/A
3:53 am 03:53 Clear 61 16.1 60 15.6 97 97 N N/A 29.93 1013 10 16 N/A
4:53 am 04:53 Clear 60 15.6 60 15.6 100 100 N N/A 29.93 1014 10 16 N/A
5:53 am 05:53 Clear 60 15.6 60 15.6 100 100 N N/A 29.93 1014 10 16 N/A
6:53 am 06:53 Sunny 60 15.6 60 15.6 100 100 N N/A 29.94 1014 10 16 N/A
7:53 am 07:53 Sunny 65 18.3 61 16.1 87 87 ENE 3 6 29.95 1014 10 16 N/A
8:53 am 08:53 Sunny 70 21.1 61 16.1 73 73 N N/A 29.96 1014 10 16 N/A
9:53 am 09:53 Sunny 75 23.9 62 16.7 64 64 N N/A 29.95 1014 10 16 N/A
10:53 am 10:53 Sunny 76 24.4 63 17.2 64 64 SSW 6 9 29.94 1014 10 16 N/A
11:53 am 11:53 Sunny 80 26.7 62 16.7 54 54 SSE 9 15 29.95 1014 10 16 N/A
12:53 pm 12:53 Sunny 83 28.3 61 16.1 48 48 SSE 9 15 29.94 1014 10 16 N/A
1:53 pm 13:53 Partly Cloudy 85 29.4 61 16.1 45 45 VRB 3 6 29.93 1013 10 16 N/A
2:53 pm 14:53 Sunny 86 30 62 16.7 45 45 S 6 9 29.90 1013 10 16 N/A
3:53 pm 15:53 Mostly Sunny 85 29.4 63 17.2 48 48 ESE 6 9 29.88 1012 10 16 N/A
4:53 pm 16:53 Mostly Sunny 86 30 61 16.1 43 43 ESE 3 6 29.89 1012 10 16 N/A
5:53 pm 17:53 Sunny 83 28.3 66 18.9 57 57 S 6 9 29.88 1012 10 16 N/A
6:53 pm 18:53 Sunny 81 27.2 70 21.1 69 69 S 5 7 29.88 1012 10 16 N/A
7:53 pm 19:53 Mostly Sunny 79 26.1 69 20.6 72 72 S 5 7 29.88 1012 10 16 N/A
8:53 pm 20:53 Sunny 77 25 68 20 74 74 SW 8 13 29.88 1012 10 16 N/A
9:53 pm 21:53 Clear 73 22.8 67 19.4 81 81 S 5 7 29.88 1012 10 16 N/A
10:53 pm 22:53 Clear 74 23.3 67 19.4 79 79 N N/A 29.88 1012 10 16 N/A
11:53 pm 23:53 Clear 69 20.6 68 20 96 96 SSE 5 7 29.88 1012 10 16 N/A

Powered by AerisWeather